Location: Unspecified
(50.1700°N, 6.8600°E)
Time: 12:35:21
(UTC+00:00)

Cosmos 2058 - Pass Details

Date: 24 January 2019
Orbit: 563 x 584 km, 82.5° (Epoch: 19 April)

Event Time Altitude Azimuth Distance (km) Brightness Sun altitude
Exits shadow 05:48:08 - 347° (NNW) 2,698 6.1 -14.1°
Reaches altitude 10° 05:50:10 10° 344° (NNW) 1,869 5.2 -13.8°
Maximum altitude 05:54:14 65° 264° (W) 626 2.8 -13.2°
Drops below altitude 10° 05:58:17 10° 182° (S) 1,856 5.7 -12.5°
Sets 06:00:27 0° 180° (S) 2,750 6.6 -12.2°
